Regional Weather Roundup
Issued by NWS

Home | Current Version | Previous Version | Text Only | Print | Product List | Glossary Off
Versions: 1 2 3 4 5 6 7 8 9 10 11 12 13 14 15 16 17 18 19 20 21 22 23 24 25 26 27 28 29 30 31 32 33 34 35 36 37 38 39 40 41 42 43 44 45 46 47 48 49 50

000
ASUS43 KDTX 232201
RWRMI
MICHIGAN HOURLY REGIONAL WEATHER ROUNDUP
NATIONAL WEATHER SERVICE DETROIT/PONTIAC MI
600 PM EDT SUN JUL 23 2017

NOTE: "FAIR" INDICATES FEW OR NO CLOUDS BELOW 12,000 FEET WITH NO
SIGNIFICANT WEATHER AND/OR OBSTRUCTION TO VISIBILITY.

MIZ047>049-052>055-059>063-066>070-074>076-081>083-232300-
SOUTHEAST LOWER MICHIGAN

CITY           SKY/WX    TMP DP  RH WIND       PRES   REMARKS
ADRIAN         FAIR      77  71  82 S6        29.76S
ALMA           FAIR      83  56  40 NW17      29.74S
ANN ARBOR      FAIR      84  66  54 NW7       29.74F
BAD AXE        CLOUDY    77  66  69 NW23G31   29.75R
CARO           PTSUNNY   79  65  62 SW5       29.71F
DETROIT CITY   FAIR      82  69  64 SE6       29.73F
DETROIT        PTSUNNY   83  68  60 CALM      29.74F
FLINT          FAIR      80  65  59 VRB5      29.74F
GROSSE ILE     FAIR      78  71  80 S8        29.73S
HILLSDALE      CLOUDY    79  68  69 N3        29.77S
HOWELL         PTSUNNY   79  68  69 CALM      29.75S

CITY           SKY/WX    TMP DP  RH WIND       PRES   REMARKS
JACKSON        PTSUNNY   79  70  74 SE5       29.76R
LAMBERTVILLE   FAIR      72  69  90 SE3       29.75F
LANSING        FAIR      80  62  54 NW6       29.76R
LAPEER         FAIR      82  63  52 SW6       29.74F
MASON          FAIR      78  68  71 W3        29.75F
MONROE         FAIR      76  69  79 CALM      29.74S
MT. CLEMENS    PTSUNNY   80  69  70 S8        29.71F
PONTIAC        FAIR      83  64  52 NW6       29.73F
PORT HOPE        N/A     73  65  75 CALM      29.71S
PORT HURON     FAIR      82  68  61 CALM      29.73S
TRI CITIES     FAIR      83  66  56 NW17G25   29.72F
MIDLAND        FAIR      83  61  47 W12G18    29.72S
TROY           FAIR      84  64  51 NW5       29.75F
SAGINAW HB     FAIR      77  64  65 SW8       29.72S
$$
MIZ043>046-050>051-056>058-064>065-071>073-077>080-232300-
SOUTHWEST LOWER MICHIGAN

CITY           SKY/WX    TMP DP  RH WIND       PRES   REMARKS
BATTLE CREEK   FAIR      84  64  50 NW13      29.77S
BENTON HARBOR  FAIR      79  66  64 VRB5      29.79R
BIG RAPIDS     FAIR      78  63  60 NW10G18   29.77S
COLDWATER      FAIR      84  63  48 NW10      29.77R
FREMONT        FAIR      79  63  57 NW10G16   29.77F
HOLLAND        PTSUNNY   77  68  73 N8        29.79S
GRAND RAPIDS   PTSUNNY   82  64  54 NW10      29.76S
IONIA          FAIR      83  59  43 NW10      29.75S
KALAMAZOO      FAIR      85  61  44 NW14G20   29.77R
LUDINGTON      CLOUDY    73  67  80 N10       29.79S
MARSHALL       FAIR      84  64  49 NW7       29.76S
MOUNT PLEASANT FAIR      82  59  44 NW8       29.73S
MUSKEGON       PTSUNNY   78  68  71 NW8       29.78F
SOUTH HAVEN    PTSUNNY   77  70  79 N7        29.79S
$$
MIZ016>042-232300-
NORTHERN LOWER MICHIGAN

CITY           SKY/WX    TMP DP  RH WIND       PRES   REMARKS
ALPENA         CLOUDY    68  66  93 NE8       29.77R
BEAVER ISLAND  RAIN      63  60  90 NE8       29.84R
BELLAIRE       PTSUNNY   75  62  64 NW5       29.78R
CADILLAC       FAIR      76  63  64 NW12G18   29.79S
CHARLEVOIX     FAIR      70  63  77 N8        29.82S
FRANKFORT      FAIR      71  65  81 N9        29.81R
GAYLORD        CLOUDY    69  60  73 NE9       29.80R
GRAYLING       PTSUNNY   70  61  72 N6        29.80S
HARBOR SPRINGS CLOUDY    66  61  82 NE10G20   29.81R
HOUGHTON LAKE  FAIR      73  66  78 NW14G20   29.78F
MANISTEE       FAIR      75  64  68 N9        29.79S
OSCODA         FAIR      69  64  85 CALM      29.74S
PELLSTON       CLOUDY    63  60  90 NE10      29.83R
ROGERS CITY    CLOUDY    63  61  94 E10       29.81R
TRAVERSE CITY  PTSUNNY   72  62  71 N10       29.78S
$$
MIZ007>008-015-232300-
EASTERN UPPER MICHIGAN

CITY           SKY/WX    TMP DP  RH WIND       PRES   REMARKS
KINROSS        LGT RAIN  59  58  96 NE15      29.86R
MACKINAC ISLAN CLOUDY    61  61 100 NE14      29.84R
NEWBERRY       CLOUDY    58  57  97 NE9       29.87R FOG
S. S. MARIE    LGT RAIN  59  56  89 NE6       29.87R FOG
MUNISING         N/A     61  60  97 NE18      29.90R
$$
MIZ004>006-011>014-085-232300-
CENTRAL UPPER MICHIGAN

CITY           SKY/WX    TMP DP  RH WIND       PRES   REMARKS
MANISTIQUE     CLOUDY    61  58  90 N13       29.85R
ESCANABA       CLOUDY    63  58  83 N9G17     29.87R
MENOMINEE      FAIR      72  59  63 N17G25    29.84R
SAWYER-GWINN   CLOUDY    55  54  94 N14       29.94R
$$
MIZ001>003-009>011-084-232300-
WESTERN UPPER MICHIGAN

CITY           SKY/WX    TMP DP  RH WIND       PRES   REMARKS
IRON MOUNTAIN  CLOUDY    64  54  69 N17       29.91R
HOUGHTON       CLOUDY    63  54  72 E6        29.98R
COPPER HARBOR    N/A     59  52  77 CALM      29.97R
IRONWOOD       CLOUDY    60  58  92 N8        29.99S
$$

ABBREVIATIONS USED IN REMARKS
   TC - TEMPERATURE IN CELSIUS
  WCI - WIND CHILL INDEX
   HX - HEAT INDEX
  VSB - VISIBILITY




USA.gov is the U.S. government's official web portal to all federal, state and local government web resources and services.